Regional Weather Roundup
Issued by NWS

Home | Current Version | Previous Version | Graphics & Text | Print | Product List | Glossary On
Versions: 1 2 3 4 5 6 7 8 9 10 11 12 13 14 15 16 17 18 19 20 21 22 23 24 25 26 27 28
000
ASUS45 KBOU 271610
RWRCO

WEATHER ROUNDUP FOR COLORADO
NATIONAL WEATHER SERVICE DENVER/BOULDER CO
1000 AM MDT TUE SEP 27 2016

NOTE: "FAIR" INDICATES FEW OR NO CLOUDS BELOW 12000 FEET WITH NO
SIGNIFICANT WEATHER AND/OR OBSTRUCTIONS TO VISIBILITY.

COZ001>005-013-030-031-271700-
...NORTHWEST COLORADO...

CITY           SKY/WX    TMP DP  RH WIND       PRES   REMARKS
CRAIG          FAIR      51  37  58 CALM      30.37S
HAYDEN         FAIR      52  34  50 E7        30.37S
MEEKER         FAIR      51  37  58 CALM      30.36F
MOUNT WERNER   NOT AVBL
STEAMBOAT SPGS FAIR      50  36  58 CALM      30.38S
WALDEN           N/A     48  32  53 CALM      30.45S
$$

COZ006>008-011-271700-
...WEST CENTRAL VALLEYS...

CITY           SKY/WX    TMP DP  RH WIND       PRES   REMARKS
GRAND JUNCTION FAIR      62  38  40 SE9       30.29S
MONTROSE       FAIR      58  36  43 W5        30.35S
EAGLE          SUNNY     48  30  49 CALM      30.43F
RIFLE          FAIR      55  40  56 CALM      30.34F
DELTA          NOT AVBL
NUCLA          FAIR      57  37  47 CALM      30.37F
$$

COZ017>023-064>068-271700-
...SOUTHWEST COLORADO...

CITY           SKY/WX    TMP DP  RH WIND       PRES   REMARKS
DURANGO        FAIR      57  36  45 CALM      30.38R
CORTEZ         FAIR      60  39  45 CALM      30.34S
PAGOSA SPRINGS FAIR      57  35  43 S3        30.42S
TELLURIDE      FAIR      56  37  50 CALM      30.49F
WOLF CREEK PAS FAIR      45  32  61 NE10      30.66S
$$

COZ009-010-012-014-032>034-037-058>063-271700-
...CENTRAL COLORADO...

CITY           SKY/WX    TMP DP  RH WIND       PRES   REMARKS
ASPEN          FAIR      55  32  41 NW3       30.41F
BUENA VISTA    FAIR      55  26  32 CALM      30.42F
COPPER MTN     FAIR      54  27  35 W5        30.64F
BERTHOUD PASS  FAIR      41  30  65 NE6G21    30.67S
COTTONWOOD PAS FAIR      55  23  28 E3        30.51S
GUNNISON       FAIR      47  29  49 E3        30.47F
KREMMLING      FAIR      46  28  49 CALM      30.46F
LEADVILLE      FAIR      52  24  33 CALM      30.50F
MONARCH PASS   FAIR      45  27  49 SW8       30.74R
SALIDA         FAIR      54  28  37 N3        30.49S
SUNLIGHT       FAIR      52  32  46 CALM      30.60S
WILKERSON PASS FAIR      52  23  32 N5        30.62S
$$

COZ069>075-271700-
...SAN LUIS VALLEY/SANGRE DE CRISTO MOUNTAINS...

CITY           SKY/WX    TMP DP  RH WIND       PRES   REMARKS
ALAMOSA        FAIR      52  32  46 CALM      30.43F
LA VETA PASS   FAIR      46  30  53 MISG      30.54S
SAGUACHE       NOT AVBL
$$

COZ035-036-038>040-271700-
...NORTHERN COLORADO FRONT RANGE...

CITY           SKY/WX    TMP DP  RH WIND       PRES   REMARKS
DENVER INTL AP FAIR      66  31  27 W6        30.26S
DMNS CITY PARK   N/A     67  33  29 W2        30.26S
AURORA         SUNNY     65  31  28 W5        30.27S
FRONT RANGE AP SUNNY     68  32  26 CALM      30.27S
ERIE MUNI ARPT FAIR      64  33  31 CALM      30.25S
BOULDER MUN AP FAIR      64  34  32 CALM      30.25S
CENTENNIAL     FAIR      66  30  26 VRB3      30.28R
BROOMFIELD     SUNNY     64  34  32 VRB5      30.28S
FORT COLLINS   FAIR      63  37  39 S5        30.24F
LONGMONT       FAIR      68  35  30 S3        30.25F
$$

COZ041-046-047-076>085-087-088-271700-
...PIKES PEAK/PALMER DIVIDE AND SOUTHERN FOOTHILLS...

CITY           SKY/WX    TMP DP  RH WIND       PRES   REMARKS
COLO. SPRINGS  FAIR      66  29  24 CALM      30.30S
A. F. ACADEMY  FAIR      67  31  26 SW5       30.30F
SCHRIEVER AFB  NOT AVBL
ELLICOTT       NOT AVBL
FALCON         FAIR      66  29  24 CALM      30.34S
FORT CARSON    FAIR      66  30  26 SW2       30.27S
LIMON          FAIR      69  30  23 CALM      30.25F
MONUMENT HILL  FAIR      64  28  25 CALM      30.35S
TRINIDAD       FAIR      68  34  28 SW9       30.30S
$$

COZ042>045-048>051-090-091-271700-
...NORTHEAST COLORADO...

CITY           SKY/WX    TMP DP  RH WIND       PRES   REMARKS
GREELEY ARPT   FAIR      63  41  45 CALM      30.24F
AKRON          FAIR      65  36  34 W10       30.22S
BURLINGTON     FAIR      72  35  25 W10       30.21F
WRAY           NOT AVBL
STERLING       FAIR      59  41  51 S8        30.19F
HOLYOKE        FAIR      73  43  33 W5        30.18S
FORT MORGAN    FAIR      62  38  41 W9        30.23S
$$

COZ086-089-092>099-271700-
...SOUTHEAST COLORADO...

CITY           SKY/WX    TMP DP  RH WIND       PRES   REMARKS
PUEBLO         FAIR      65  32  29 W5        30.24S
LA JUNTA       FAIR      65  34  31 W5        30.23R
LAMAR          FAIR      66  36  32 NW8       30.20F
SPRINGFIELD    NOT AVBL
$$




USA.gov is the U.S. government's official web portal to all federal, state and local government web resources and services.